map of ABT home
ABT - Airport
Location
City:  Al-Baha, Saudi Arabia
Name:Al-Baha Airport
ICAO:OEBA
IATA:ABT

Details
Type:Airport (Aerodrome, Airfield)
Use:Public/Civil, International (customs port of entry)
Latitude:2017'46"N (20.296111)
Longitude:4138'03"E (41.634167)
Elevation:5486 ft (1672 m)
Variation:3.08E (WMM2015 magnetic declination)
0.05 annual change
Runways:1
Longest:10991 × 148 ft (3350 × 45 m), paved

Time
Time Zone:UTC+3
Local Time:

Weather
METAR:OEBA 252200Z 10010KT 8000 FEW030 11/10 Q1022 NOSIG
TAF:OEBA 251000Z 2512/2618 10006G16KT 6000 SCT030
TEMPO 2512/2518 2000 BLDU/TSRA FEW025CB BKN030
BECMG 2518/2520 14010KT

Related Locations
Nearby:
Farthest:ZTA: 12435 mi / 20012 km
Tureia, PF

Find:

   beyond  
but within

Other Information
Maps:
NOTAMs:
Links:
Sources:

  
flag of Saudi Arabia   

Sectional Chart

Flight Planning
at skyvector.com

Satellite Image

Google Maps Satellite view

 

Copyright © 2004-2017 Karl L. Swartz. All rights reserved.
The Great Circle Mapper name and logo are trademarks of the Great Circle Mapper.
All other trademarks mentioned herein belong to their respective owners.
Please see credits for attibutions and further copyright information.

  Follow gcmap on Facebook Follow gcmap on Twitter Follow gcmap on Google+ GCmap on LinkedIn

hCard Microformat

Geo Microformat